Location: Bakhuizen
(52.8696°N, 5.4575°E)
Time: 15:03:41
(UTC+00:00)

Cosmos 773 Rocket - Pass Details

Date: 26 September 2021
Orbit: 745 x 777 km, 74.1° (Epoch: 18 October)

Event Time Altitude Azimuth Distance (km) Brightness Sun altitude
Rises 19:43:49 0° 323° (NW) 3,248 8.3 -20.9°
Reaches altitude 10° 19:46:56 10° 305° (NW) 2,322 7.6 -21.3°
Maximum altitude 19:50:17 17° 265° (W) 1,861 6.7 -21.7°
Drops below altitude 10° 19:53:39 10° 225° (SW) 2,321 6.7 -22.2°
Sets 19:56:46 0° 206° (SSW) 3,246 7.2 -22.6°
